[[{"header":{"parameterUnit":"m.s-1","parameterCategory":2,"la1":30.2991,"la2":30.254,"lo1":-89.0895,"lo2":-89.0444,"dy":0.0017,"dx":0.0017,"nx":28,"ny":28,"refTime":"2025-04-21T03:00:00:Z","depth":"0","parameterNumber":2,"parameterNumberName":"U-component_of_CURRENTS"},"data":[0,0,0,0,0,0,0,0,0,0,0,0,0,0,0,0,0,0,0,0,0,0,0,0,0,0,0,0,0,0,0,0,0,0,0,0,0,0,0,0,0,0,0,0,0,0,0,0,0,0,0,0,0,0,0,0,0,0,0.3119,0.312,0,0.3162,0.3162,0.3162,0.3089,0.3087,0.3085,0.3083,0.306,0.3061,0.3062,0,0,0,0,0,0,0,0,0,0,0,0,0,0.2955,0.2958,0.3119,0.312,0.3121,0.3162,0.3162,0.3162,0.309,0.3087,0.3085,0.3083,0.3059,0.3061,0.3062,0,0,0,0,0,0,0,0,0,0,0,0,0,0.301,0.2959,0.3119,0.3094,0.3092,0.3162,0.3162,0.3162,0.309,0.3087,0.3084,0.3081,0.3059,0.3061,0.3062,0.3135,0,0,0.3068,0.3069,0,0,0,0,0,0,0,0,0.3007,0.3016,0.3096,0.3095,0.3094,0.3121,0.3096,0.3151,0.3091,0.3086,0.3083,0.308,0.308,0.308,0.3088,0.3133,0.3132,0.3068,0.3069,0.307,0.3071,0,0,0,0,0,0,0,0.3004,0.3014,0.3131,0.3098,0.3096,0.3073,0.3078,0.3106,0.3094,0.3086,0.3082,0.3096,0.3077,0.3087,0.3087,0.3132,0.3068,0.307,0.3071,0.3072,0.3262,0.3265,0,0,0,0,0,0,0.3014,0.3011,0.313,0.3133,0.3048,0.3079,0.3084,0.3112,0.3095,0.3092,0.3098,0.3092,0.3085,0.3085,0.3086,0.3163,0.307,0.3072,0.3073,0.3258,0.3263,0.3267,0,0,0,0,0,0,0.301,0.3025,0.3128,0.3075,0.3087,0.3086,0.3118,0.3114,0.3126,0.3106,0.3099,0.3113,0.3083,0.3083,0.3134,0.3161,0.3073,0.3074,0.3253,0.3259,0.3265,0.3321,0,0,0,0,0,0,0.3006,0.3023,0.3056,0.3077,0.3091,0.318,0.3121,0.3117,0.3141,0.3133,0.3118,0.3112,0.308,0.3132,0.3136,0.3162,0.3076,0.3248,0.3256,0.3263,0.3314,0.3328,0.3339,0,0,0,0,0,0.3,0.305,0.3057,0.3072,0.3133,0.3183,0.3189,0.3172,0.3145,0.3167,0.3165,0.3112,0.3181,0.3137,0.3141,0.3167,0.3245,0.3254,0.3262,0.3308,0.3325,0.3339,0,0,0,0,0,0,0.3001,0.3049,0.3056,0.3121,0.3158,0.3173,0.3196,0.3193,0.3211,0.3197,0.3167,0.3164,0.322,0.321,0.3163,0.3253,0.3204,0.3214,0.3237,0.3253,0.3266,0.3241,0.3078,0,0,0,0,0,0.3023,0.3064,0.311,0.3163,0.3184,0.3198,0.3219,0.3212,0.3229,0.3231,0.3225,0.3233,0.3266,0.3269,0.3296,0.3348,0.3338,0.3373,0.3386,0.3396,0.3385,0.3409,0.3421,0.3296,0.3296,0.3296,0,0,0.3032,0.3071,0.3092,0.3165,0.3186,0.322,0.32,0.3239,0.3261,0.3231,0.3263,0.3286,0.3299,0.3351,0.3373,0.3336,0.3439,0.3407,0.3415,0.3398,0.3419,0.3431,0.3441,0.3302,0.3301,0.33,0,0,0.306,0.3116,0.3147,0.3185,0.3234,0.3252,0.327,0.3301,0.3309,0.3363,0.3351,0.3395,0.3432,0.3444,0.3455,0.3567,0.3517,0.3582,0.3604,0.3629,0.3637,0.3645,0.3679,0.3689,0.3572,0.3572,0.3572,0,0.3061,0.3123,0.3167,0.3206,0.3235,0.3267,0.3299,0.3331,0.3372,0.3391,0.3376,0.3458,0.3471,0.353,0.3567,0.3588,0.3596,0.3531,0.3639,0.3646,0.3652,0.3686,0.3695,0.3576,0.3575,0.3575,0.3575,0,0.3111,0.3155,0.3182,0.3237,0.328,0.3321,0.3368,0.3412,0.3429,0.3445,0.3517,0.355,0.3581,0.3615,0.362,0.3688,0.3681,0.3658,0.3581,0.3667,0.3699,0.3708,0.3581,0.358,0.3579,0.3578,0,0,0.3089,0.3192,0.3193,0.3221,0.3298,0.3334,0.3397,0.3459,0.3479,0.3535,0.3564,0.3651,0.3654,0.3672,0.3694,0.3723,0.3799,0.3709,0.3709,0.3712,0.3862,0.3801,0.3804,0.3784,0.3786,0.3787,0.3875,0,0.3099,0.3179,0.3223,0.3278,0.3322,0.3376,0.3422,0.348,0.3522,0.3562,0.3616,0.3652,0.3679,0.3692,0.3735,0.3785,0.3821,0.3777,0.3806,0.3807,0.3714,0.3812,0.3572,0.3624,0.3884,0.3885,0.3886,0,0.3115,0.3169,0.3235,0.3302,0.3321,0.335,0.3426,0.3469,0.354,0.3568,0.362,0.3649,0.3733,0.3721,0.3837,0.3805,0.384,0.3871,0.3875,0.3792,0.3761,0.3579,0.363,0.3478,0.39,0.3899,0.3898,0,0.3093,0.3165,0.3222,0.325,0.3334,0.3358,0.3393,0.3462,0.3495,0.356,0.3585,0.3669,0.3709,0.3776,0.3867,0.3848,0.3974,0.3948,0.3928,0.3925,0.3712,0.3687,0.3581,0.401,0.401,0.4009,0.4009,0,0.3101,0.3135,0.3207,0.324,0.327,0.3327,0.3351,0.3406,0.3458,0.3486,0.357,0.3611,0.3721,0.3808,0.3875,0.3944,0.3984,0.3948,0.3944,0.3733,0.3709,0.3559,0.3531,0.4013,0.4012,0.4011,0.4011,0,0.3083,0.314,0.3193,0.3259,0.3267,0.3285,0.332,0.3334,0.3397,0.344,0.3461,0.3584,0.3696,0.3811,0.3927,0.3943,0.3885,0.4021,0.3777,0.3743,0.3551,0.3538,0.3407,0.3317,0.4002,0.4001,0.4,0,0.3103,0.313,0.3188,0.319,0.3213,0.3231,0.3236,0.3297,0.3314,0.3421,0.3441,0.3564,0.364,0.3806,0.3845,0.3939,0.3843,0.3759,0.3674,0.3516,0.35,0.3423,0.3352,0.3435,0.343,0.3426,0.3422,0,0.3111,0.3122,0.3155,0.3148,0.3149,0.3144,0.3157,0.3165,0.3233,0.3269,0.3323,0.339,0.3558,0.3534,0.3663,0.3692,0.3525,0.3671,0.3548,0.3087,0.2952,0.2869,0.3428,0.3383,0.3387,0.3389,0.3392,0.3393,0.3094,0.3092,0.3099,0.3068,0.3065,0.3013,0.2951,0.2984,0.2972,0.2971,0.3137,0.3147,0.3206,0.3344,0.3376,0.3194,0.3297,0.3039,0.3056,0.3009,0.2841,0.3333,0.3257,0.326,0.3263,0.3265,0.3267,0,0.3036,0.3013,0.3003,0.2936,0.2849,0.2885,0.285,0.2753,0.2673,0.2761,0.2774,0.2744,0.2717,0.2777,0.268,0.2565,0.2485,0.247,0.2262,0.2243,0.2684,0.2572,0.229,0.229,0.229,0.229,0.229,0.2291,0.3004,0.2945,0.2907,0.2709,0.2643,0.2481,0.2417,0.234,0.2342,0.2246,0.2205,0.227,0.2345,0.2252,0.2085,0.2042,0.1899,0.1786,0.1886,0.2128,0.218,0.2229,0.2112,0.1738,0.1737,0.1271,0.1267,0.1264]},{"header":{"parameterUnit":"m.s-1","parameterCategory":2,"la1":30.2991,"la2":30.254,"lo1":-89.0895,"lo2":-89.0444,"dy":0.0017,"dx":0.0017,"nx":28,"ny":28,"refTime":"2025-04-21T03:00:00:Z","depth":"0","parameterNumber":3,"parameterNumberName":"V-component_of_CURRENTS"},"data":[0,0,0,0,0,0,0,0,0,0,0,0,0,0,0,0,0,0,0,0,0,0,0,0,0,0,0,0,0,0,0,0,0,0,0,0,0,0,0,0,0,0,0,0,0,0,0,0,0,0,0,0,0,0,0,0,0,0,-0.0008,-0.0008,0,0.0011,0.0012,0.0012,0.0007,0.0006,0.0005,0.0005,0.0008,0.0009,0.001,0,0,0,0,0,0,0,0,0,0,0,0,0,0.002,0.0019,-0.0008,-0.0008,-0.0008,0.0011,0.0012,0.0012,0.0007,0.0006,0.0005,0.0005,0.0008,0.0009,0.001,0,0,0,0,0,0,0,0,0,0,0,0,0,0.0022,0.0019,-0.0008,-0.001,-0.001,0.0011,0.0012,0.0012,0.0007,0.0006,0.0005,0.0004,0.0008,0.0009,0.001,0.0032,0,0,0.0013,0.0013,0,0,0,0,0,0,0,0,0.0022,0.0021,-0.001,-0.001,-0.001,0.0004,0.0023,0.0017,0.0007,0.0002,0.0005,0.0004,0.0005,0.0006,0.0014,0.0032,0.0033,0.0013,0.0013,0.0014,0.0014,0,0,0,0,0,0,0,0.0021,0.0021,0.0001,-0.001,-0.001,0.0012,0.0011,0.0022,0.0009,0.0003,0.0002,0.0001,0.0005,0.0013,0.0014,0.0033,0.0013,0.0013,0.0014,0.0014,0.0012,0.0012,0,0,0,0,0,0,0.0012,0.002,0.0,0.0002,0.0002,0.0012,0.0011,0.0002,0.0009,0.0009,0.0002,0.0001,0.0012,0.0013,0.0014,-0.0003,0.0014,0.0014,0.0015,0.0013,0.0012,0.0012,0,0,0,0,0,0,0.0013,0.001,-0.0,0.0011,0.001,0.0012,0.0002,0.0003,0.0007,0.0009,0.0009,0.0005,0.0012,0.0013,0.0018,-0.0001,0.0015,0.0016,0.0014,0.0013,0.0012,-0.0009,0,0,0,0,0,0,0.0013,0.001,0.0005,0.0009,0.0009,0.0016,0.0003,0.0004,0.0008,0.0007,0.0012,0.0011,0.0011,0.0016,0.0019,0.0,0.0016,0.0014,0.0013,0.0012,-0.0007,-0.001,-0.0013,0,0,0,0,0,0.0014,0.0013,0.0004,0.0002,-0.0,0.0016,0.0019,0.0019,0.0009,0.0019,0.0013,0.0011,0.001,0.0017,0.002,0.0001,0.0015,0.0014,0.0012,-0.0006,-0.001,-0.0013,0,0,0,0,0,0,0.0032,0.0012,0.0003,-0.0003,0.0006,0.0015,0.0022,0.0021,0.0026,0.002,0.0017,0.0017,0.0009,0.0013,0.0021,-0.0004,0.0007,0.0006,-0.0008,-0.0011,-0.0014,0.0001,0.0017,0,0,0,0,0,0.003,0.0019,0.0014,0.0014,0.0013,0.0017,0.0023,0.0024,0.0027,0.0029,0.0028,0.002,0.0008,0.0005,0.0005,0.0003,0.0016,-0.0012,-0.0015,-0.0017,-0.0004,0.0005,0.0004,0.0007,0.0007,0.0007,0,0,0.004,0.0027,0.0023,0.0017,0.002,0.0023,0.0019,0.0031,0.0027,0.0029,0.0024,0.0018,0.0006,-0.0005,-0.0009,-0.0005,-0.0015,-0.0019,-0.0021,-0.0006,0.0003,0.0003,0.0003,0.0006,0.0006,0.0007,0,0,0.0064,0.004,0.0043,0.0041,0.0041,0.0037,0.0038,0.0043,0.0035,0.0036,0.0021,0.001,0.0004,-0.0012,-0.0022,-0.0036,-0.0028,-0.0048,-0.005,-0.0043,-0.0042,-0.0042,-0.0039,-0.0038,-0.0052,-0.0052,-0.0052,0,0.008,0.0074,0.0053,0.0054,0.0056,0.0038,0.0051,0.0037,0.0043,0.0046,0.0031,0.0018,-0.0001,-0.0018,-0.004,-0.0042,-0.0034,-0.0038,-0.0045,-0.0044,-0.0043,-0.0041,-0.0039,-0.0053,-0.0053,-0.0053,-0.0053,0,0.0104,0.0099,0.0103,0.0085,0.0085,0.0096,0.0069,0.0066,0.0048,0.0042,0.0032,0.001,0.0006,-0.0021,-0.0041,-0.0053,-0.0049,-0.0047,-0.0034,-0.0045,-0.0042,-0.004,-0.0055,-0.0055,-0.0054,-0.0054,0,0,0.0147,0.0124,0.0129,0.013,0.0103,0.0113,0.0089,0.0084,0.0088,0.0062,0.0075,0.0017,0.0013,0.0001,-0.0026,-0.0039,-0.0052,-0.0047,-0.0046,-0.0039,-0.0035,-0.0027,-0.0024,-0.0049,-0.0048,-0.0048,-0.004,0,0.0181,0.0198,0.0169,0.0184,0.0191,0.0156,0.0144,0.013,0.0113,0.0117,0.0075,0.0072,0.0015,0.0015,-0.0011,-0.0028,-0.0046,-0.0054,-0.0029,-0.0029,-0.0015,-0.0021,0.0018,0.0029,-0.0038,-0.0038,-0.0038,0,0.0219,0.0223,0.0249,0.024,0.0241,0.0237,0.0232,0.0219,0.0196,0.0188,0.0169,0.0145,0.0108,0.007,0.0027,0.0027,-0.0009,-0.0031,-0.003,-0.0007,-0.0016,0.0031,0.0035,-0.0053,-0.0035,-0.0035,-0.0035,0,0.0284,0.0281,0.0306,0.0302,0.0284,0.0287,0.0272,0.0251,0.026,0.0236,0.0258,0.0208,0.0204,0.0151,0.0081,0.006,0.0053,0.0024,-0.0002,-0.0002,0.0045,0.0049,-0.0023,0.0001,0.0001,0.0001,0.0001,0,0.0335,0.0357,0.0337,0.0354,0.0382,0.0341,0.0369,0.0349,0.0344,0.0378,0.0301,0.033,0.0225,0.0203,0.0123,0.0075,0.0087,0.0006,0.0005,0.0036,0.0039,-0.0023,-0.0087,0.0001,0.0001,0.0001,0.0001,0,0.0413,0.0398,0.0429,0.042,0.0418,0.0438,0.0433,0.0459,0.0432,0.0479,0.0478,0.0434,0.0404,0.0308,0.0236,0.0148,0.005,0.0069,0.0106,0.0109,-0.0011,-0.0076,-0.0129,-0.0169,0.004,0.004,0.004,0,0.0449,0.0478,0.0496,0.0524,0.0522,0.0534,0.0554,0.0514,0.0546,0.0556,0.0601,0.0572,0.0584,0.0472,0.0329,0.0213,0.0094,0.0132,0.0088,-0.0006,-0.008,-0.0127,-0.016,0.0134,0.0135,0.0136,0.0137,0,0.0524,0.054,0.0572,0.064,0.0665,0.0683,0.0702,0.0736,0.071,0.0753,0.0808,0.0818,0.0713,0.0617,0.0431,0.033,0.0076,0.0145,0.0046,-0.0012,-0.0063,-0.0104,0.0106,0.0144,0.0144,0.0143,0.0143,0.0142,0.0582,0.0634,0.0691,0.0758,0.0795,0.0833,0.0858,0.0893,0.0947,0.1015,0.1,0.1054,0.0865,0.0633,0.0473,0.0181,0.0149,0.0077,0.0006,-0.0033,-0.0074,0.0146,0.0182,0.0182,0.0181,0.0181,0.018,0,0.0641,0.0714,0.0802,0.0871,0.0936,0.0921,0.0968,0.0998,0.1081,0.1168,0.1228,0.1188,0.0968,0.0688,0.0292,0.0079,-0.0009,-0.0054,-0.0117,-0.0147,0.0061,0.0061,0.0076,0.0076,0.0076,0.0076,0.0076,0.0076,0.0668,0.078,0.0841,0.0974,0.1025,0.1075,0.1097,0.1156,0.1223,0.1322,0.1372,0.1391,0.1152,0.0463,0.0005,-0.0097,-0.0265,-0.0281,-0.0386,-0.0256,-0.0249,-0.0243,-0.0258,-0.031,-0.0311,-0.0543,-0.0545,-0.0547]}],[{"header":{"parameterUnit":"m.s-1","parameterCategory":2,"la1":30.2991,"la2":30.254,"lo1":-89.0895,"lo2":-89.0444,"dy":0.0017,"dx":0.0017,"nx":28,"ny":28,"refTime":"2025-04-21T03:00:00:Z","depth":"2","parameterNumber":2,"parameterNumberName":"U-component_of_CURRENTS"},"data":[0,0,0,0,0,0,0,0,0,0,0,0,0,0,0,0,0,0,0,0,0,0,0,0,0,0,0,0,0,0,0,0,0,0,0,0,0,0,0,0,0,0,0,0,0,0,0,0,0,0,0,0,0,0,0,0,0,0,0.2201,0.2202,0,0.2226,0.2225,0.2225,0.2117,0.2115,0.2114,0.2112,0.2092,0.2093,0.2095,0,0,0,0,0,0,0,0,0,0,0,0,0,0.2114,0.2115,0.2201,0.2202,0.2204,0.2226,0.2225,0.2224,0.2118,0.2115,0.2113,0.2111,0.2092,0.2093,0.2095,0,0,0,0,0,0,0,0,0,0,0,0,0,0.2134,0.2115,0.22,0.2163,0.2161,0.2227,0.2225,0.2224,0.2118,0.2115,0.2112,0.211,0.2091,0.2093,0.2095,0.2164,0,0,0.2101,0.2101,0,0,0,0,0,0,0,0,0.2133,0.2136,0.2167,0.2166,0.2164,0.2178,0.2189,0.2206,0.2119,0.212,0.2112,0.2108,0.2128,0.2126,0.2119,0.2163,0.2162,0.2101,0.2102,0.2103,0.2103,0,0,0,0,0,0,0,0.2132,0.2135,0.2197,0.2169,0.2168,0.2165,0.2163,0.2191,0.2128,0.212,0.2115,0.2141,0.2124,0.2117,0.2118,0.2162,0.2101,0.2102,0.2104,0.2104,0.2261,0.2264,0,0,0,0,0,0,0.2157,0.2133,0.2196,0.2199,0.2156,0.217,0.2166,0.2165,0.2129,0.2125,0.2143,0.2136,0.2115,0.2115,0.2117,0.2239,0.2103,0.2104,0.2106,0.2258,0.2261,0.2265,0,0,0,0,0,0,0.2154,0.2161,0.2196,0.2179,0.2185,0.2175,0.2174,0.2167,0.2162,0.215,0.2141,0.2147,0.2113,0.2114,0.2164,0.2236,0.2105,0.2107,0.2254,0.2259,0.2263,0.2457,0,0,0,0,0,0,0.2151,0.2159,0.2186,0.218,0.2187,0.2239,0.2178,0.217,0.2189,0.2179,0.2151,0.2145,0.2111,0.2162,0.2166,0.2236,0.2108,0.225,0.2256,0.2262,0.2447,0.2468,0.2485,0,0,0,0,0,0.2147,0.2203,0.2186,0.2196,0.2216,0.2242,0.2244,0.2219,0.2192,0.22,0.2196,0.2146,0.2199,0.2167,0.2171,0.2243,0.2248,0.2255,0.2261,0.2438,0.2464,0.2485,0,0,0,0,0,0,0.2184,0.2199,0.2179,0.2236,0.224,0.2229,0.2272,0.224,0.2242,0.2248,0.2199,0.2196,0.2253,0.223,0.2195,0.2301,0.2211,0.2219,0.2344,0.2368,0.2387,0.242,0.211,0,0,0,0,0,0.2209,0.2244,0.2245,0.229,0.2308,0.2289,0.2307,0.2285,0.2288,0.2283,0.2271,0.2271,0.2289,0.2312,0.2309,0.2396,0.2372,0.2438,0.2458,0.2475,0.2504,0.2558,0.2586,0.2287,0.2287,0.2287,0,0,0.2223,0.2256,0.2263,0.2301,0.2311,0.2348,0.2288,0.2332,0.2364,0.2291,0.2349,0.2335,0.232,0.2394,0.242,0.2388,0.254,0.2483,0.2498,0.2518,0.2568,0.2597,0.2623,0.2292,0.2291,0.229,0,0,0.2294,0.2313,0.2364,0.2386,0.2434,0.2425,0.2441,0.2445,0.2451,0.2503,0.2464,0.2512,0.2522,0.2551,0.2559,0.2696,0.2625,0.2678,0.2833,0.2886,0.2911,0.2933,0.2914,0.2934,0.2709,0.271,0.271,0,0.2298,0.2377,0.2383,0.2454,0.2492,0.2461,0.2516,0.2534,0.255,0.259,0.254,0.2609,0.2604,0.2717,0.2767,0.2745,0.2731,0.2748,0.2914,0.2935,0.2955,0.293,0.2949,0.272,0.2719,0.2718,0.2717,0,0.2408,0.2471,0.252,0.258,0.2618,0.267,0.2694,0.2735,0.2736,0.2745,0.2838,0.2842,0.2877,0.2897,0.2882,0.3032,0.2959,0.2916,0.286,0.2997,0.2961,0.2977,0.2735,0.2731,0.2728,0.2725,0,0,0.2376,0.2548,0.2567,0.2618,0.2691,0.2724,0.282,0.2888,0.295,0.2982,0.3067,0.3144,0.3134,0.3147,0.314,0.3224,0.3351,0.3156,0.3154,0.3145,0.3424,0.326,0.3259,0.3342,0.3346,0.335,0.3334,0,0.2437,0.2599,0.2673,0.2785,0.2844,0.2885,0.2969,0.3037,0.3072,0.3149,0.3203,0.326,0.323,0.3259,0.3346,0.3346,0.3407,0.3357,0.3285,0.3282,0.3128,0.3279,0.3005,0.296,0.3349,0.3351,0.3353,0,0.2489,0.2605,0.2744,0.2887,0.2921,0.2991,0.3113,0.3182,0.3296,0.3328,0.3412,0.3411,0.3551,0.3477,0.3582,0.3548,0.3514,0.3505,0.3503,0.3299,0.315,0.289,0.2973,0.3378,0.3376,0.3374,0.3373,0,0.2436,0.2632,0.2752,0.28,0.2962,0.305,0.313,0.3247,0.3305,0.3444,0.3474,0.3604,0.3634,0.3682,0.366,0.3634,0.3728,0.3665,0.3476,0.3459,0.3188,0.314,0.3733,0.3733,0.3733,0.3733,0.3733,0,0.2433,0.2515,0.2751,0.2806,0.2944,0.3063,0.3187,0.3278,0.3399,0.3464,0.3557,0.3593,0.3693,0.3728,0.3717,0.3646,0.376,0.3536,0.3476,0.324,0.32,0.3528,0.3505,0.3732,0.3732,0.3733,0.3733,0,0.2302,0.2465,0.2592,0.283,0.2909,0.2994,0.3182,0.3256,0.3385,0.3466,0.351,0.3608,0.3641,0.3687,0.3739,0.3666,0.3651,0.3578,0.3264,0.3169,0.3322,0.3309,0.3381,0.3376,0.3372,0.3368,0.3365,0,0.2255,0.2319,0.257,0.2656,0.2767,0.2928,0.3028,0.3213,0.3282,0.3438,0.3459,0.3531,0.3483,0.3489,0.3439,0.3379,0.3501,0.3087,0.3005,0.3368,0.3302,0.3296,0.3289,0.2703,0.2694,0.2688,0.2682,0,0.2142,0.223,0.2325,0.2505,0.2648,0.2784,0.2953,0.3002,0.3197,0.3235,0.3243,0.3218,0.3211,0.3009,0.2978,0.2925,0.3091,0.2941,0.3447,0.283,0.2726,0.2661,0.2678,0.2622,0.2628,0.2632,0.2636,0.2638,0.2034,0.2057,0.2195,0.2331,0.247,0.259,0.2634,0.2766,0.2802,0.2795,0.2907,0.2746,0.2758,0.2494,0.2441,0.2447,0.264,0.254,0.2562,0.2592,0.2513,0.2407,0.2224,0.2227,0.223,0.2233,0.2236,0,0.1934,0.1966,0.204,0.2178,0.2227,0.2399,0.2529,0.2495,0.2443,0.2443,0.235,0.2062,0.19,0.1968,0.1849,0.1857,0.1876,0.1814,0.1817,0.1877,0.193,0.182,0.1346,0.1344,0.1341,0.1339,0,0,0.1884,0.1888,0.1901,0.1915,0.2011,0.2041,0.2086,0.2028,0.1988,0.1778,0.166,0.1655,0.1794,0.1476,0.1486,0.1392,0.1622,0.1344,0.2052,0.2107,0.2157,0.2338,0.2233,0,0,0,0,0]},{"header":{"parameterUnit":"m.s-1","parameterCategory":2,"la1":30.2991,"la2":30.254,"lo1":-89.0895,"lo2":-89.0444,"dy":0.0017,"dx":0.0017,"nx":28,"ny":28,"refTime":"2025-04-21T03:00:00:Z","depth":"2","parameterNumber":3,"parameterNumberName":"V-component_of_CURRENTS"},"data":[0,0,0,0,0,0,0,0,0,0,0,0,0,0,0,0,0,0,0,0,0,0,0,0,0,0,0,0,0,0,0,0,0,0,0,0,0,0,0,0,0,0,0,0,0,0,0,0,0,0,0,0,0,0,0,0,0,0,-0.0206,-0.0206,0,-0.0213,-0.0213,-0.0212,-0.0207,-0.0208,-0.0208,-0.0208,-0.0235,-0.0235,-0.0236,0,0,0,0,0,0,0,0,0,0,0,0,0,-0.0147,-0.0148,-0.0205,-0.0206,-0.0207,-0.0213,-0.0213,-0.0212,-0.0207,-0.0208,-0.0208,-0.0209,-0.0235,-0.0235,-0.0236,0,0,0,0,0,0,0,0,0,0,0,0,0,-0.0159,-0.0148,-0.0205,-0.021,-0.0211,-0.0214,-0.0213,-0.0212,-0.0207,-0.0208,-0.0208,-0.0209,-0.0235,-0.0235,-0.0236,-0.0227,0,0,-0.0237,-0.0238,0,0,0,0,0,0,0,0,-0.0158,-0.016,-0.0209,-0.021,-0.0211,-0.0216,-0.0202,-0.022,-0.0207,-0.0201,-0.0208,-0.0209,-0.0235,-0.0235,-0.0225,-0.0228,-0.0229,-0.0237,-0.0238,-0.0238,-0.0238,0,0,0,0,0,0,0,-0.0157,-0.0159,-0.0201,-0.021,-0.0211,-0.0199,-0.0201,-0.0205,-0.0209,-0.0202,-0.0203,-0.0215,-0.0235,-0.0224,-0.0226,-0.023,-0.0237,-0.0238,-0.0238,-0.0238,-0.0267,-0.0268,0,0,0,0,0,0,-0.0172,-0.0159,-0.0201,-0.0202,-0.0193,-0.02,-0.0202,-0.0208,-0.0209,-0.0212,-0.0214,-0.0215,-0.0223,-0.0225,-0.0227,-0.0251,-0.0238,-0.0238,-0.0239,-0.0267,-0.0267,-0.0268,0,0,0,0,0,0,-0.017,-0.0175,-0.0201,-0.0187,-0.019,-0.0202,-0.0208,-0.0208,-0.0207,-0.022,-0.0221,-0.0215,-0.0224,-0.0226,-0.0232,-0.0251,-0.0239,-0.0239,-0.0266,-0.0267,-0.0268,-0.0276,0,0,0,0,0,0,-0.0168,-0.0174,-0.0185,-0.0188,-0.0192,-0.019,-0.0208,-0.0208,-0.0216,-0.0217,-0.0221,-0.0223,-0.0225,-0.0232,-0.0233,-0.0251,-0.024,-0.0266,-0.0267,-0.0267,-0.0276,-0.0277,-0.0279,0,0,0,0,0,-0.0166,-0.0177,-0.0185,-0.0191,-0.0205,-0.019,-0.0189,-0.0195,-0.0216,-0.0199,-0.0215,-0.0223,-0.0239,-0.0232,-0.0233,-0.0252,-0.0265,-0.0266,-0.0267,-0.0275,-0.0277,-0.0279,0,0,0,0,0,0,-0.0146,-0.0179,-0.0187,-0.0204,-0.0194,-0.0191,-0.0196,-0.0199,-0.0197,-0.0209,-0.022,-0.0223,-0.0237,-0.0241,-0.0233,-0.0264,-0.0257,-0.0259,-0.0262,-0.0264,-0.0266,-0.0256,-0.024,0,0,0,0,0,-0.0151,-0.017,-0.018,-0.0187,-0.0193,-0.0195,-0.0196,-0.0193,-0.0197,-0.0196,-0.0205,-0.0223,-0.024,-0.0249,-0.0253,-0.0266,-0.0246,-0.0282,-0.0283,-0.0285,-0.0278,-0.0273,-0.0274,-0.0271,-0.0271,-0.0271,0,0,-0.0137,-0.0165,-0.0169,-0.0185,-0.0188,-0.0179,-0.0195,-0.0192,-0.0187,-0.0202,-0.0206,-0.0223,-0.0243,-0.0256,-0.0264,-0.0264,-0.027,-0.0286,-0.0287,-0.0279,-0.0275,-0.0275,-0.0275,-0.0272,-0.0272,-0.0272,0,0,-0.0115,-0.0152,-0.0155,-0.0155,-0.0169,-0.0171,-0.0173,-0.0172,-0.018,-0.0178,-0.0203,-0.0227,-0.0239,-0.0261,-0.0276,-0.0289,-0.0275,-0.0301,-0.0306,-0.0302,-0.0302,-0.0302,-0.0251,-0.0246,-0.0307,-0.0307,-0.0307,0,-0.0093,-0.0108,-0.0145,-0.0146,-0.0149,-0.017,-0.0152,-0.0162,-0.0159,-0.017,-0.0178,-0.0217,-0.0241,-0.0273,-0.0288,-0.0294,-0.0271,-0.0298,-0.0303,-0.0303,-0.0302,-0.0251,-0.0245,-0.0308,-0.0308,-0.0307,-0.0307,0,-0.0068,-0.008,-0.0083,-0.0099,-0.0101,-0.009,-0.0114,-0.0119,-0.0143,-0.0151,-0.0179,-0.0209,-0.0233,-0.0258,-0.0282,-0.0306,-0.0281,-0.0301,-0.0295,-0.0303,-0.0248,-0.0242,-0.0308,-0.0308,-0.0308,-0.0308,0,0,-0.0001,-0.0053,-0.0049,-0.0051,-0.0077,-0.0068,-0.0086,-0.0095,-0.0104,-0.0128,-0.0131,-0.0197,-0.0223,-0.0242,-0.0281,-0.0295,-0.0281,-0.0304,-0.0304,-0.0247,-0.0234,-0.0249,-0.0243,-0.0304,-0.0304,-0.0304,-0.0186,0,0.0043,0.0051,0.0006,0.0026,0.0033,-0.0012,-0.002,-0.004,-0.0066,-0.0074,-0.0135,-0.0149,-0.0216,-0.0228,-0.0261,-0.0273,-0.0271,-0.0308,-0.024,-0.0237,-0.0246,-0.024,-0.024,-0.014,-0.0181,-0.018,-0.0179,0,0.0101,0.0087,0.0114,0.0082,0.0079,0.0075,0.0053,0.0044,0.0001,-0.0014,-0.0059,-0.0092,-0.0137,-0.018,-0.0206,-0.0226,-0.0232,-0.0238,-0.0234,-0.0242,-0.0243,-0.0145,-0.0127,-0.0169,-0.017,-0.017,-0.0171,0,0.0198,0.017,0.0189,0.0184,0.0145,0.0128,0.0099,0.006,0.0064,0.0024,0.0047,-0.0028,-0.0023,-0.0075,-0.012,-0.0155,-0.0112,-0.0156,-0.0161,-0.0159,-0.0143,-0.0142,-0.0152,-0.0152,-0.0152,-0.0152,-0.0153,0,0.0281,0.0298,0.0224,0.0243,0.0245,0.0185,0.0188,0.0156,0.0135,0.017,0.0079,0.0124,0.0003,0.0002,-0.0067,-0.0087,-0.0067,-0.0148,-0.014,-0.0144,-0.0144,-0.0168,-0.0172,-0.0148,-0.0149,-0.015,-0.0151,0,0.041,0.0368,0.0383,0.0323,0.0299,0.0301,0.0251,0.0264,0.0232,0.0285,0.0287,0.0262,0.0257,0.0159,0.0115,0.0017,-0.0022,-0.0027,-0.0006,-0.0001,-0.0077,-0.0082,-0.0022,-0.0022,-0.0022,-0.0022,-0.0021,0,0.0467,0.0491,0.0458,0.0463,0.0429,0.0402,0.0397,0.0329,0.0353,0.0393,0.0449,0.0453,0.0482,0.0401,0.0229,0.0123,0.0075,0.0039,-0.0061,-0.007,-0.0067,-0.0073,-0.0079,-0.0013,-0.0013,-0.0012,-0.0012,0,0.0565,0.0565,0.0587,0.0603,0.0587,0.0575,0.0552,0.0589,0.0552,0.0618,0.0722,0.0751,0.0649,0.0523,0.0325,0.023,0.0033,0.0038,0.0044,-0.007,-0.006,-0.0058,-0.0064,-0.0011,-0.0011,-0.0011,-0.0011,-0.0011,0.0638,0.0674,0.0705,0.072,0.073,0.0745,0.0749,0.0773,0.0841,0.0903,0.0925,0.094,0.0762,0.0503,0.0338,0.0108,0.0107,-0.0004,-0.0004,-0.0005,-0.005,-0.0043,0.0005,0.0005,0.0005,0.0005,0.0005,0,0.0689,0.0737,0.0795,0.0814,0.0858,0.0824,0.0856,0.0874,0.0976,0.1023,0.1084,0.0922,0.0775,0.0554,0.0227,0.0049,0.0015,-0.0023,-0.0031,-0.0031,-0.0031,-0.008,-0.003,-0.0031,-0.0031,-0.0032,0,0,0.0715,0.0785,0.0813,0.0891,0.0921,0.0939,0.0955,0.1032,0.1062,0.1113,0.1082,0.1051,0.0807,0.0567,0.0332,0.0145,0.0091,0.0101,0.0146,0.0165,0.0166,-0.0004,-0.0077,0,0,0,0,0]}],[{"header":{"parameterUnit":"m.s-1","parameterCategory":2,"la1":30.2991,"la2":30.254,"lo1":-89.0895,"lo2":-89.0444,"dy":0.0017,"dx":0.0017,"nx":28,"ny":28,"refTime":"2025-04-21T03:00:00:Z","depth":"4","parameterNumber":2,"parameterNumberName":"U-component_of_CURRENTS"},"data":[0,0,0,0,0,0,0,0,0,0,0,0,0,0,0,0,0,0,0,0,0,0,0,0,0,0,0,0,0,0,0,0,0,0,0,0,0,0,0,0,0,0,0,0,0,0,0,0,0,0,0,0,0,0,0,0,0,0,0.0797,0.0797,0,0.0878,0.0879,0.088,0.0963,0.0964,0.0965,0.0966,0.102,0.1021,0.1021,0,0,0,0,0,0,0,0,0,0,0,0,0,0.0839,0.0837,0.0796,0.0797,0.0798,0.0878,0.0879,0.088,0.0963,0.0964,0.0966,0.0967,0.102,0.1021,0.1021,0,0,0,0,0,0,0,0,0,0,0,0,0,0.0861,0.0837,0.0796,0.0849,0.0854,0.0878,0.0879,0.0881,0.0963,0.0964,0.0966,0.0968,0.102,0.1021,0.1021,0.0994,0,0,0.1023,0.1024,0,0,0,0,0,0,0,0,0.086,0.086,0.084,0.0845,0.0851,0.0911,0.0914,0.0917,0.0963,0.0923,0.0966,0.0968,0.0979,0.0984,0.0997,0.0997,0.0999,0.1024,0.1024,0.1024,0.1024,0,0,0,0,0,0,0,0.0858,0.0857,0.083,0.0841,0.0848,0.0911,0.0915,0.0916,0.0941,0.0926,0.0932,0.0939,0.0983,0.0996,0.0999,0.1,0.1024,0.1024,0.1025,0.1025,0.1083,0.1084,0,0,0,0,0,0,0.0837,0.0855,0.0827,0.0832,0.0858,0.0909,0.0913,0.0891,0.0942,0.0952,0.0938,0.0943,0.0994,0.0998,0.1001,0.1051,0.1024,0.1025,0.1025,0.1082,0.1083,0.1084,0,0,0,0,0,0,0.0837,0.0832,0.0824,0.0847,0.085,0.0905,0.0881,0.0892,0.0938,0.0951,0.0961,0.0976,0.0996,0.1,0.1035,0.105,0.1025,0.1026,0.108,0.1082,0.1084,0.1099,0,0,0,0,0,0,0.0837,0.0831,0.0828,0.0844,0.0848,0.0862,0.088,0.0892,0.0937,0.0945,0.0985,0.0991,0.0997,0.1034,0.1036,0.1051,0.1026,0.1079,0.1081,0.1083,0.1097,0.1101,0.1104,0,0,0,0,0,0.0838,0.0809,0.0827,0.0825,0.0834,0.0862,0.0872,0.0918,0.0937,0.0964,0.0992,0.0991,0.1049,0.1035,0.1037,0.1053,0.1078,0.1081,0.1083,0.1095,0.11,0.1104,0,0,0,0,0,0,0.0826,0.0815,0.0835,0.0805,0.0849,0.0877,0.0897,0.093,0.0973,0.0983,0.1001,0.1008,0.1043,0.1047,0.1032,0.1078,0.1065,0.1067,0.1073,0.1078,0.1081,0.1071,0.1027,0,0,0,0,0,0.0819,0.0789,0.082,0.0799,0.0822,0.0868,0.0891,0.0924,0.0954,0.0978,0.1009,0.1034,0.1048,0.1065,0.108,0.11,0.1132,0.1114,0.1118,0.1121,0.1115,0.1192,0.1202,0.1093,0.1093,0.1093,0,0,0.0816,0.0797,0.0789,0.0796,0.0828,0.0865,0.0887,0.0922,0.0948,0.0971,0.1022,0.1046,0.1057,0.1086,0.1102,0.1096,0.1173,0.1124,0.1126,0.1119,0.1196,0.1206,0.1216,0.1094,0.1094,0.1094,0,0,0.0782,0.0775,0.0758,0.0795,0.0838,0.0866,0.0884,0.094,0.0967,0.1009,0.1033,0.1061,0.1101,0.1107,0.1111,0.1138,0.1188,0.1167,0.1177,0.1252,0.1262,0.127,0.1339,0.1354,0.1171,0.1171,0.1171,0,0.0797,0.0759,0.0768,0.0781,0.0814,0.087,0.0903,0.093,0.0993,0.1009,0.1029,0.1102,0.1095,0.1127,0.1136,0.1141,0.1214,0.1157,0.1257,0.1266,0.1275,0.1343,0.1359,0.1172,0.1172,0.1172,0.1172,0,0.0767,0.0765,0.0762,0.0789,0.0829,0.086,0.091,0.0956,0.0994,0.102,0.1077,0.1098,0.1152,0.1149,0.1142,0.1208,0.1251,0.1251,0.1244,0.1287,0.1356,0.1373,0.1173,0.1173,0.1173,0.1172,0,0,0.0749,0.0744,0.0752,0.0775,0.084,0.0869,0.091,0.096,0.1005,0.1054,0.1118,0.1115,0.1167,0.1175,0.1202,0.1241,0.1341,0.1284,0.1287,0.1348,0.1545,0.14,0.1404,0.1397,0.1399,0.1401,0.1574,0,0.0748,0.0737,0.0749,0.0796,0.0819,0.0887,0.0931,0.0982,0.1031,0.111,0.1124,0.1196,0.1169,0.1235,0.1268,0.1323,0.1386,0.1295,0.1497,0.1502,0.1364,0.1417,0.141,0.1586,0.159,0.1593,0.1595,0,0.0728,0.0727,0.0739,0.0799,0.0824,0.0875,0.0972,0.1028,0.1117,0.1166,0.1241,0.1285,0.1344,0.1338,0.1455,0.1424,0.1492,0.1523,0.1532,0.1396,0.1385,0.1533,0.1625,0.1623,0.162,0.1618,0.1616,0,0.0701,0.0726,0.0721,0.0749,0.083,0.0873,0.0952,0.1044,0.1094,0.1241,0.1304,0.1392,0.1481,0.155,0.1567,0.1569,0.1696,0.1708,0.1644,0.1637,0.171,0.1699,0.1821,0.1821,0.182,0.182,0.1819,0,0.0689,0.0715,0.071,0.0744,0.0789,0.0873,0.0958,0.1058,0.1184,0.1258,0.1361,0.1436,0.1552,0.1611,0.163,0.1656,0.1757,0.165,0.1669,0.1714,0.1701,0.1723,0.1709,0.1826,0.1825,0.1824,0.1822,0,0.069,0.0676,0.0691,0.0752,0.0776,0.0833,0.0964,0.1022,0.1175,0.1296,0.1354,0.151,0.1615,0.1659,0.1784,0.1736,0.1762,0.1757,0.1794,0.1811,0.1659,0.1644,0.175,0.1746,0.1743,0.1741,0.1738,0,0.069,0.0677,0.0686,0.0699,0.0742,0.0818,0.0868,0.1012,0.1075,0.1305,0.1351,0.152,0.1601,0.1636,0.1714,0.176,0.1739,0.1759,0.1704,0.1643,0.1652,0.1642,0.1632,0.1733,0.1732,0.1732,0.1731,0,0.0722,0.0696,0.0705,0.0705,0.0734,0.0751,0.085,0.0869,0.1051,0.1182,0.1311,0.1391,0.152,0.1588,0.1627,0.1646,0.1733,0.1727,0.1735,0.1684,0.1624,0.1633,0.1627,0.172,0.1721,0.1722,0.1723,0,0.0738,0.0728,0.0707,0.0705,0.0722,0.0706,0.0739,0.0809,0.088,0.1119,0.1158,0.1339,0.1499,0.1532,0.1545,0.1558,0.1574,0.1529,0.1548,0.1561,0.1412,0.1303,0.1323,0,0,0,0,0,0.0756,0.0738,0.0728,0.0694,0.0694,0.0703,0.074,0.0767,0.0902,0.0953,0.1056,0.1159,0.1275,0.1358,0.1344,0.149,0.1571,0.1469,0.1524,0.1658,0.1671,0.1509,0,0,0,0,0,0,0.077,0.0768,0.0722,0.0677,0.0655,0.0643,0.0646,0.0714,0.0732,0.0895,0.0942,0.11,0.1198,0.1283,0.1334,0.136,0.137,0.1578,0.1575,0.1651,0.1663,0.1673,0.1511,0,0,0,0,0]},{"header":{"parameterUnit":"m.s-1","parameterCategory":2,"la1":30.2991,"la2":30.254,"lo1":-89.0895,"lo2":-89.0444,"dy":0.0017,"dx":0.0017,"nx":28,"ny":28,"refTime":"2025-04-21T03:00:00:Z","depth":"4","parameterNumber":3,"parameterNumberName":"V-component_of_CURRENTS"},"data":[0,0,0,0,0,0,0,0,0,0,0,0,0,0,0,0,0,0,0,0,0,0,0,0,0,0,0,0,0,0,0,0,0,0,0,0,0,0,0,0,0,0,0,0,0,0,0,0,0,0,0,0,0,0,0,0,0,0,0.0143,0.0143,0,0.0099,0.0099,0.0098,0.0049,0.0048,0.0048,0.0047,0.0024,0.0024,0.0024,0,0,0,0,0,0,0,0,0,0,0,0,0,0.0097,0.0099,0.0143,0.0143,0.0142,0.0099,0.0099,0.0098,0.0049,0.0048,0.0047,0.0047,0.0024,0.0024,0.0024,0,0,0,0,0,0,0,0,0,0,0,0,0,0.009,0.0099,0.0143,0.0114,0.0112,0.01,0.0099,0.0098,0.0049,0.0048,0.0047,0.0047,0.0024,0.0024,0.0024,0.0038,0,0,0.0023,0.0023,0,0,0,0,0,0,0,0,0.009,0.0091,0.0119,0.0116,0.0113,0.0081,0.0074,0.008,0.0049,0.007,0.0047,0.0046,0.0047,0.0045,0.0035,0.0037,0.0036,0.0023,0.0023,0.0023,0.0023,0,0,0,0,0,0,0,0.0091,0.0092,0.0123,0.0119,0.0115,0.0074,0.0073,0.0074,0.0062,0.0068,0.0065,0.0064,0.0045,0.0035,0.0034,0.0036,0.0023,0.0023,0.0023,0.0023,0.0035,0.0035,0,0,0,0,0,0,0.0107,0.0094,0.0125,0.0122,0.0102,0.0076,0.0075,0.009,0.0062,0.0057,0.0065,0.0062,0.0036,0.0034,0.0033,0.007,0.0023,0.0023,0.0023,0.0034,0.0035,0.0035,0,0,0,0,0,0,0.0107,0.0111,0.0127,0.0107,0.0107,0.0079,0.0096,0.009,0.0077,0.0059,0.0054,0.0059,0.0035,0.0033,0.0037,0.0068,0.0023,0.0023,0.0034,0.0035,0.0035,0.0131,0,0,0,0,0,0,0.0106,0.0111,0.0124,0.0109,0.0109,0.0127,0.0097,0.0089,0.0079,0.0074,0.0053,0.0049,0.0034,0.0038,0.0037,0.0067,0.0023,0.0033,0.0034,0.0035,0.0128,0.0135,0.0142,0,0,0,0,0,0.0105,0.0132,0.0125,0.0128,0.0129,0.0128,0.0124,0.0098,0.0079,0.0081,0.0065,0.005,0.0042,0.0038,0.0037,0.0068,0.0033,0.0034,0.0035,0.0125,0.0134,0.0142,0,0,0,0,0,0,0.0119,0.0129,0.0121,0.0151,0.0142,0.0121,0.0122,0.0102,0.0089,0.0085,0.0061,0.0057,0.007,0.0051,0.0047,0.007,0.0033,0.0034,0.0101,0.011,0.0117,0.0129,0.0022,0,0,0,0,0,0.013,0.0156,0.0148,0.0171,0.0168,0.0144,0.0138,0.0124,0.0111,0.0103,0.0088,0.0074,0.0074,0.0077,0.0067,0.0087,0.005,0.0102,0.0109,0.0115,0.0122,0.0078,0.0082,0.0039,0.0039,0.0039,0,0,0.014,0.0152,0.0163,0.0176,0.0165,0.0179,0.0138,0.0139,0.0155,0.0106,0.0121,0.0099,0.0082,0.0101,0.0105,0.0091,0.0109,0.0117,0.0123,0.0126,0.008,0.0084,0.0088,0.0039,0.0039,0.0039,0,0,0.0181,0.0185,0.0217,0.0215,0.0213,0.0204,0.0207,0.0189,0.0184,0.0197,0.0164,0.0161,0.0159,0.0155,0.0153,0.0193,0.0144,0.0185,0.0241,0.0199,0.0203,0.0205,0.0174,0.0173,0.0194,0.0194,0.0194,0,0.019,0.0233,0.0223,0.0249,0.0254,0.0221,0.0248,0.0245,0.0231,0.0229,0.0216,0.02,0.0191,0.0211,0.0228,0.0213,0.0174,0.0217,0.021,0.0211,0.0212,0.0179,0.0177,0.0199,0.0198,0.0198,0.0197,0,0.0249,0.0278,0.0294,0.0324,0.033,0.0344,0.0341,0.0343,0.0333,0.032,0.0325,0.0306,0.0293,0.0296,0.0283,0.0289,0.0255,0.0221,0.0193,0.0223,0.0186,0.0181,0.0206,0.0204,0.0203,0.0201,0,0,0.0283,0.0327,0.0335,0.0355,0.0368,0.038,0.0413,0.0422,0.0432,0.0421,0.0432,0.0439,0.0401,0.0395,0.037,0.0348,0.0336,0.0297,0.0293,0.0276,0.0243,0.023,0.0223,0.0292,0.0292,0.0292,0.0218,0,0.0327,0.0396,0.0408,0.0464,0.0488,0.0476,0.0507,0.051,0.0503,0.0502,0.0478,0.048,0.0448,0.0446,0.0419,0.035,0.0327,0.0359,0.0208,0.0204,0.0197,0.0219,0.029,0.0215,0.0214,0.0213,0.0212,0,0.0378,0.0418,0.0485,0.0528,0.0537,0.0572,0.0598,0.0622,0.061,0.06,0.0583,0.0544,0.0529,0.0491,0.0397,0.0412,0.034,0.0287,0.0281,0.0232,0.0183,0.0173,0.0204,0.0205,0.0205,0.0206,0.0206,0,0.0404,0.047,0.0528,0.0541,0.0585,0.0618,0.0647,0.0651,0.0666,0.0662,0.0654,0.0609,0.0592,0.0498,0.0394,0.0387,0.0273,0.0243,0.0165,0.0163,0.0153,0.0151,0.0172,0.0172,0.0172,0.0172,0.0172,0,0.044,0.0485,0.0549,0.0577,0.0643,0.0662,0.0717,0.0731,0.0738,0.0751,0.0707,0.0695,0.0589,0.0507,0.0404,0.0276,0.0274,0.0182,0.0145,0.0196,0.02,0.0151,0.0149,0.0169,0.017,0.017,0.0171,0,0.0453,0.0494,0.056,0.0629,0.0659,0.0708,0.0774,0.0791,0.0803,0.082,0.0823,0.0755,0.0654,0.0535,0.0386,0.0296,0.0174,0.0126,0.0205,0.0172,0.0089,0.0094,0.0035,0.0034,0.0033,0.0032,0.0032,0,0.0469,0.0504,0.0601,0.0641,0.068,0.0753,0.079,0.0828,0.0847,0.0849,0.0851,0.0774,0.0712,0.0488,0.0369,0.0178,0.0146,0.0083,0.0083,0.0106,0.0076,0.0082,0.0087,0.003,0.003,0.003,0.003,0,0.0484,0.052,0.0569,0.0658,0.0719,0.0774,0.0842,0.0861,0.0892,0.0906,0.0855,0.0752,0.0638,0.0479,0.0338,0.0199,0.0126,0.0073,0.0074,0.0073,0.01,0.0072,0.0078,0.0027,0.0027,0.0027,0.0027,0,0.0495,0.0522,0.0589,0.0659,0.0727,0.0772,0.0815,0.0837,0.0858,0.0872,0.0855,0.0739,0.0689,0.0489,0.0356,0.0226,0.0186,0.0132,0.0129,0.0131,0.0181,0.023,0.0172,0,0,0,0,0,0.0504,0.0524,0.0583,0.0652,0.0712,0.0753,0.0827,0.0856,0.0904,0.0864,0.0861,0.0755,0.0562,0.0482,0.0346,0.0333,0.0163,0.0169,0.0099,0.001,0.0013,0.0055,0,0,0,0,0,0,0.0506,0.0556,0.0571,0.0623,0.0661,0.0722,0.0765,0.08,0.0784,0.0818,0.0714,0.0701,0.0512,0.0628,0.0332,0.0298,0.0231,0.0096,0.0092,0.0008,0.0011,0.0014,0.0058,0,0,0,0,0]}]]